Location: ????
(33.1659°N, 35.6604°E)
Time: 20:54:50
(UTC+00:00)

Cosmos 2219 Rocket - Pass Details

Date: 20 September 2019
Orbit: 829 x 845 km, 71.0° (Epoch: 16 October)

Event Time Altitude Azimuth Distance (km) Brightness Sun altitude
Rises 16:23:55 0° 344° (NNW) 3,376 5.7 -10.5°
Reaches altitude 10° 16:26:25 10° 349° (NNW) 2,441 4.9 -11.0°
Maximum altitude 16:31:54 56° 67° (ENE) 982 2.3 -12.2°
Drops below altitude 10° 16:37:23 10° 145° (SE) 2,437 4.2 -13.3°
Enters shadow 16:38:13 - 147° (SSE) 2,746 4.5 -13.5°
